User: anonymous   Login
Location: Unspecified
(48.5670°N, 0.0000°E)
Time: 11:38:57
(UTC+00:00)
Language:

Vanguard 2 Rocket - Orbit

View from above orbital plane
View from above orbital plane
View from above satellite
View from above satellite

Ground track
Ground track

The orbit data is extracted from the following two-line orbital elements,

1    12U 59001B   20332.86238993  .00000346  00000-0  18394-3 0  9997
2    12  32.9038 139.2273 1666635 215.0888 132.7852 11.44361318541271
Epoch (UTC): 27 November 2020 20:41:50
Eccentricity: 0.1666635
inclination: 32.9038°
perigee height: 553 km
apogee height: 3326 km
right ascension of ascending node: 139.2273°
argument of perigee: 215.0888°
revolutions per day: 11.44361318
mean anomaly at epoch: 132.7852°
orbit number at epoch: 54127

The dashed part of the orbit path shows where the satellite is in the earth's shadow,  

DLR